| time (UTC) | temp F | wind direction | speed MPH | gust MPH | rain 1hr in | rain 24hr in | rain mn in | humidity % | barometer mb |
| 20260901133008 | 65 | 319 | 1.0 | 7.0 | 0.00 | 0.00 | 0.00 | 59 | 1017.0 |
| 20260901131936 | 66 | 327 | 1.0 | 7.0 | 0.00 | 0.00 | 0.00 | 58 | 1017.0 |
| 20260901130935 | 66 | 346 | 2.0 | 7.0 | 0.00 | 0.00 | 0.00 | 57 | 1017.0 |
| 20260901125933 | 66 | 316 | 2.0 | 7.0 | 0.00 | 0.00 | 0.00 | 56 | 1017.4 |
| 20260901124932 | 65 | 338 | 2.0 | 4.0 | 0.00 | 0.00 | 0.00 | 58 | 1017.3 |
| 20260901123931 | 65 | 336 | 0.0 | 2.0 | 0.00 | 0.00 | 0.00 | 58 | 1017.3 |
| 20260901122930 | 66 | 336 | 1.0 | 5.0 | 0.00 | 0.00 | 0.00 | 56 | 1017.4 |
| 20260901121929 | 66 | 335 | 1.0 | 5.0 | 0.00 | 0.00 | 0.00 | 56 | 1017.4 |
| 20260901120927 | 65 | 337 | 2.0 | 5.0 | 0.00 | 0.00 | 0.00 | 57 | 1017.7 |
| 20260901115925 | 64 | 345 | 1.0 | 4.0 | 0.00 | 0.00 | 0.00 | 58 | 1017.7 |
| 20260901114924 | 64 | 353 | 1.0 | 2.0 | 0.00 | 0.00 | 0.00 | 58 | 1018.0 |
| 20260901113923 | 64 | 349 | 1.0 | 2.0 | 0.00 | 0.00 | 0.00 | 57 | 1018.4 |
| 20260901112922 | 64 | 5 | 1.0 | 2.0 | 0.00 | 0.00 | 0.00 | 57 | 1018.4 |
| 20260901111920 | 64 | 306 | 1.0 | 1.0 | 0.00 | 0.00 | 0.00 | 58 | 1018.7 |
| 20260901110816 | 64 | 306 | 0.0 | 1.0 | 0.00 | 0.00 | 0.00 | 59 | 1018.7 |
| 20260901105815 | 64 | 306 | 0.0 | 1.0 | 0.00 | 0.00 | 0.00 | 59 | 1018.7 |
| 20260901104813 | 64 | 271 | 1.0 | 1.0 | 0.00 | 0.00 | 0.00 | 58 | 1018.7 |
| 20260901103740 | 64 | 259 | 0.0 | 1.0 | 0.00 | 0.00 | 0.00 | 58 | 1018.7 |
| 20260901102739 | 65 | 259 | 0.0 | 1.0 | 0.00 | 0.00 | 0.00 | 56 | 1018.7 |
| 20260901101738 | 66 | 259 | 0.0 | 1.0 | 0.00 | 0.00 | 0.00 | 55 | 1018.7 |
| 20260901100737 | 67 | 259 | 0.0 | 1.0 | 0.00 | 0.00 | 0.00 | 51 | 1018.7 |
| 20260901095735 | 68 | 259 | 0.0 | 1.0 | 0.00 | 0.00 | 0.00 | 49 | 1018.7 |
| 20260901094733 | 68 | 259 | 0.0 | 1.0 | 0.00 | 0.00 | 0.00 | 48 | 1018.7 |
| 20260901093732 | 69 | 259 | 0.0 | 1.0 | 0.00 | 0.00 | 0.00 | 46 | 1018.7 |
| 20260901092731 | 69 | 259 | 0.0 | 1.0 | 0.00 | 0.00 | 0.00 | 45 | 1019.1 |
| 20260901091658 | 70 | 259 | 0.0 | 1.0 | 0.00 | 0.00 | 0.00 | 43 | 1018.7 |
| 20260901090657 | 71 | 258 | 0.0 | 0.0 | 0.00 | 0.00 | 0.00 | 40 | 1018.7 |
| 20260901085656 | 71 | 258 | 0.0 | 2.0 | 0.00 | 0.00 | 0.00 | 38 | 1018.7 |
| 20260901084654 | 54 | 336 | 0.0 | 1.0 | 0.00 | 0.00 | 0.00 | 1 | 1027.4 |
| 20260831142030 | 54 | 336 | 0.0 | 1.0 | 0.00 | 0.00 | 0.00 | 1 | 1027.4 |
| 20260831140954 | 54 | 336 | 0.0 | 2.0 | 0.00 | 0.00 | 0.00 | 1 | 1027.4 |
| 20260831135922 | 54 | 336 | 1.0 | 2.0 | 0.00 | 0.00 | 0.00 | 1 | 1027.8 |
| 20260831134849 | 54 | 336 | 1.0 | 2.0 | 0.00 | 0.00 | 0.00 | 1 | 1027.8 |
| 20260831133847 | 55 | 336 | 1.0 | 1.0 | 0.00 | 0.00 | 0.00 | 1 | 1027.8 |